When you browse on this site, cookies collect data to enhance your experience and personalize the content and advertising you see.
Visit our Privacy Policy to learn more. By continuing to use the site, you agree to this use of cookies and data.
  • In Lithuania
  • List of Countries
  • For 7 days
  • Water Temperature
  • Satellite Maps
  • Weather Map
  • Weather Widgets
  • user-avatar
    Login

    Hourly Weather Kurpichi

    Today, 22 July, Monday

    Time Temperature Precipitation Wind Pressure Humidity
    00:00 +19°C° 0.3 mm 4 mps 749 mmHg 92%
    01:00 +19°C° 0.3 mm 3 mps 750 mmHg 92%
    02:00 +19°C° 0.3 mm 3 mps 750 mmHg 91%
    03:00 +19°C° 0.1 mm 3 mps 750 mmHg 93%
    04:00 +18°C° 0.1 mm 3 mps 750 mmHg 94%
    05:00 +17°C° 0.1 mm 2 mps 750 mmHg 96%
    06:00 +18°C° 0 mm 3 mps 750 mmHg 90%
    07:00 +19°C° 0 mm 4 mps 751 mmHg 84%
    08:00 +20°C° 0 mm 5 mps 751 mmHg 79%
    09:00 +21°C° 0 mm 5 mps 751 mmHg 72%
    10:00 +22°C° 0 mm 5 mps 751 mmHg 65%
    11:00 +23°C° 0 mm 5 mps 752 mmHg 58%
    12:00 +24°C° 0 mm 6 mps 752 mmHg 56%
    13:00 +24°C° 0 mm 6 mps 751 mmHg 54%
    14:00 +26°C° 0 mm 6 mps 751 mmHg 52%
    15:00 +24°C° 0 mm 6 mps 751 mmHg 54%
    16:00 +24°C° 0 mm 6 mps 751 mmHg 56%
    17:00 +24°C° 0 mm 6 mps 751 mmHg 58%
    18:00 +22°C° 0 mm 5 mps 751 mmHg 63%
    19:00 +21°C° 0 mm 4 mps 751 mmHg 68%
    20:00 +19°C° 0 mm 3 mps 751 mmHg 74%
    21:00 +18°C° 0 mm 3 mps 751 mmHg 75%
    22:00 +17°C° 0 mm 3 mps 751 mmHg 76%
    23:00 +16°C° 0 mm 3 mps 751 mmHg 77%

    Tomorrow, 23 July, Tuesday

    Time Temperature Precipitation Wind Pressure Humidity
    00:00 +14°C° 0 mm 3 mps 751 mmHg 79%
    01:00 +13°C° 0 mm 3 mps 751 mmHg 81%
    02:00 +12°C° 0 mm 3 mps 751 mmHg 83%
    03:00 +12°C° 0 mm 3 mps 751 mmHg 86%
    04:00 +12°C° 0 mm 3 mps 751 mmHg 90%
    05:00 +11°C° 0 mm 3 mps 751 mmHg 93%
    06:00 +13°C° 0 mm 3 mps 751 mmHg 87%
    07:00 +15°C° 0 mm 4 mps 751 mmHg 81%
    08:00 +17°C° 0 mm 4 mps 751 mmHg 74%
    09:00 +19°C° 0 mm 4 mps 751 mmHg 68%
    10:00 +20°C° 0 mm 5 mps 751 mmHg 63%
    11:00 +22°C° 0 mm 5 mps 751 mmHg 57%
    12:00 +22°C° 0 mm 5 mps 751 mmHg 55%
    13:00 +23°C° 0 mm 5 mps 750 mmHg 53%
    14:00 +25°C° 0 mm 5 mps 750 mmHg 52%
    15:00 +25°C° 0 mm 5 mps 750 mmHg 52%
    16:00 +25°C° 0 mm 5 mps 750 mmHg 53%
    17:00 +25°C° 0 mm 5 mps 750 mmHg 53%
    18:00 +23°C° 0 mm 5 mps 750 mmHg 60%
    19:00 +21°C° 0 mm 4 mps 750 mmHg 67%
    20:00 +20°C° 0 mm 3 mps 750 mmHg 74%
    21:00 +19°C° 0 mm 3 mps 750 mmHg 78%
    22:00 +18°C° 0 mm 3 mps 750 mmHg 83%
    23:00 +17°C° 0 mm 3 mps 751 mmHg 87%

    Day after tomorrow, 24 July, Wednesday

    Time Temperature Precipitation Wind Pressure Humidity
    00:00 +16°C° 0 mm 3 mps 751 mmHg 90%
    01:00 +16°C° 0 mm 3 mps 751 mmHg 92%
    02:00 +15°C° 0 mm 2 mps 750 mmHg 95%
    03:00 +15°C° 0 mm 2 mps 750 mmHg 95%
    04:00 +15°C° 0 mm 2 mps 750 mmHg 96%
    05:00 +14°C° 0 mm 2 mps 751 mmHg 96%
    06:00 +16°C° 0 mm 2 mps 751 mmHg 89%
    07:00 +18°C° 0 mm 2 mps 751 mmHg 83%
    08:00 +19°C° 0 mm 3 mps 751 mmHg 76%
    09:00 +21°C° 0 mm 3 mps 751 mmHg 69%
    10:00 +22°C° 0 mm 3 mps 751 mmHg 63%
    11:00 +25°C° 0 mm 3 mps 751 mmHg 56%
    12:00 +25°C° 0 mm 3 mps 751 mmHg 55%
    13:00 +26°C° 0 mm 3 mps 751 mmHg 53%
    14:00 +27°C° 0 mm 3 mps 751 mmHg 51%
    15:00 +27°C° 0 mm 3 mps 751 mmHg 52%
    16:00 +27°C° 0 mm 3 mps 750 mmHg 53%
    17:00 +27°C° 0 mm 3 mps 750 mmHg 53%
    18:00 +25°C° 0 mm 3 mps 750 mmHg 61%
    19:00 +24°C° 0 mm 2 mps 750 mmHg 68%
    20:00 +21°C° 0 mm 2 mps 750 mmHg 75%
    21:00 +20°C° 0 mm 2 mps 751 mmHg 79%
    22:00 +19°C° 0 mm 2 mps 751 mmHg 84%
    23:00 +18°C° 0 mm 2 mps 751 mmHg 88%

    25 July, Thursday

    Time Temperature Precipitation Wind Pressure Humidity
    00:00 +18°C° 0 mm 2 mps 751 mmHg 90%
    01:00 +17°C° 0 mm 2 mps 751 mmHg 91%
    02:00 +17°C° 0 mm 2 mps 751 mmHg 92%
    03:00 +17°C° 0 mm 2 mps 752 mmHg 93%
    04:00 +17°C° 0 mm 2 mps 752 mmHg 93%
    05:00 +16°C° 0 mm 2 mps 752 mmHg 94%
    06:00 +18°C° 0 mm 2 mps 752 mmHg 87%
    07:00 +20°C° 0 mm 2 mps 752 mmHg 80%
    08:00 +22°C° 0 mm 3 mps 752 mmHg 72%
    09:00 +24°C° 0 mm 3 mps 752 mmHg 66%
    10:00 +26°C° 0 mm 3 mps 752 mmHg 60%
    11:00 +27°C° 0 mm 4 mps 753 mmHg 53%
    12:00 +28°C° 0 mm 4 mps 752 mmHg 52%
    13:00 +28°C° 0 mm 4 mps 752 mmHg 50%
    14:00 +29°C° 0 mm 4 mps 752 mmHg 49%
    15:00 +28°C° 0 mm 5 mps 752 mmHg 50%
    16:00 +28°C° 0 mm 5 mps 752 mmHg 51%
    17:00 +28°C° 0 mm 5 mps 752 mmHg 53%
    18:00 +26°C° 0 mm 4 mps 752 mmHg 59%
    19:00 +25°C° 0 mm 3 mps 752 mmHg 65%
    20:00 +22°C° 0 mm 3 mps 752 mmHg 72%
    21:00 +21°C° 0 mm 3 mps 752 mmHg 75%
    22:00 +20°C° 0 mm 3 mps 752 mmHg 78%
    23:00 +19°C° 0 mm 3 mps 753 mmHg 81%

    26 July, Friday

    Time Temperature Precipitation Wind Pressure Humidity
    00:00 +19°C° 0 mm 3 mps 753 mmHg 82%
    01:00 +18°C° 0 mm 3 mps 752 mmHg 83%
    02:00 +18°C° 0 mm 3 mps 752 mmHg 85%
    03:00 +18°C° 0 mm 2 mps 752 mmHg 85%
    04:00 +17°C° 0 mm 2 mps 752 mmHg 85%
    05:00 +17°C° 0 mm 2 mps 752 mmHg 85%
    06:00 +19°C° 0 mm 3 mps 752 mmHg 80%
    07:00 +20°C° 0 mm 3 mps 753 mmHg 74%
    08:00 +22°C° 0 mm 3 mps 753 mmHg 68%
    09:00 +25°C° 0 mm 3 mps 753 mmHg 63%
    10:00 +26°C° 0 mm 3 mps 753 mmHg 57%
    11:00 +28°C° 0 mm 4 mps 753 mmHg 51%
    12:00 +28°C° 0 mm 4 mps 752 mmHg 48%
    13:00 +29°C° 0 mm 3 mps 752 mmHg 45%
    14:00 +30°C° 0 mm 3 mps 752 mmHg 42%
    15:00 +29°C° 0 mm 3 mps 752 mmHg 44%
    16:00 +29°C° 0 mm 3 mps 751 mmHg 46%
    17:00 +29°C° 0 mm 3 mps 751 mmHg 47%
    18:00 +27°C° 0 mm 3 mps 751 mmHg 55%
    19:00 +26°C° 0 mm 2 mps 751 mmHg 63%
    20:00 +24°C° 0 mm 2 mps 751 mmHg 72%
    21:00 +23°C° 0 mm 2 mps 751 mmHg 76%
    22:00 +21°C° 0 mm 2 mps 751 mmHg 81%
    23:00 +20°C° 0 mm 2 mps 751 mmHg 86%

    27 July, Saturday

    Time Temperature Precipitation Wind Pressure Humidity
    00:00 +20°C° 0 mm 2 mps 751 mmHg 87%
    01:00 +19°C° 0 mm 2 mps 750 mmHg 89%
    02:00 +19°C° 0 mm 2 mps 750 mmHg 91%
    03:00 +18°C° 0 mm 2 mps 750 mmHg 91%
    04:00 +18°C° 0 mm 2 mps 750 mmHg 91%
    05:00 +18°C° 0 mm 2 mps 750 mmHg 92%
    06:00 +20°C° 0 mm 2 mps 750 mmHg 84%
    07:00 +21°C° 0 mm 2 mps 750 mmHg 77%
    08:00 +24°C° 0 mm 2 mps 750 mmHg 70%
    09:00 +26°C° 0 mm 2 mps 750 mmHg 64%
    10:00 +27°C° 0 mm 3 mps 750 mmHg 58%
    11:00 +29°C° 0 mm 3 mps 750 mmHg 52%
    12:00 +29°C° 0 mm 3 mps 749 mmHg 50%
    13:00 +30°C° 0 mm 3 mps 749 mmHg 48%
    14:00 +30°C° 0 mm 3 mps 749 mmHg 46%
    15:00 +30°C° 0 mm 3 mps 748 mmHg 47%
    16:00 +29°C° 0 mm 3 mps 748 mmHg 49%
    17:00 +29°C° 0 mm 3 mps 748 mmHg 50%
    18:00 +28°C° 0 mm 3 mps 748 mmHg 56%
    19:00 +26°C° 0 mm 2 mps 747 mmHg 61%
    20:00 +25°C° 0 mm 1 mps 747 mmHg 67%
    21:00 +24°C° 0 mm 1 mps 747 mmHg 71%
    22:00 +23°C° 0 mm 1 mps 747 mmHg 74%
    23:00 +22°C° 0 mm 1 mps 747 mmHg 77%
    Show more